[[{"header":{"parameterUnit":"m.s-1","parameterCategory":1,"la1":30.2991,"la2":30.254,"lo1":-89.0895,"lo2":-89.0444,"dy":0.0017,"dx":0.0017,"nx":28,"ny":28,"refTime":"2024-04-01T03:00:00:Z","depth":0,"parameterNumber":2,"parameterNumberName":"U-component_of_WINDS"},"data":[0,0,0,0,0,0,0,0,0,0,0,0,0,0,0,0,0,0,0,0,0,0,0,0,0,0,0,0,0,0,0,0,0,0,0,0,0,0,0,0,0,0,0,0,0,0,0,0,0,0,0,0,0,0,0,0,0,0,-1.2666,-1.2666,0,-1.2608,-1.2608,-1.2607,-1.2558,-1.2557,-1.2557,-1.2556,-1.25,-1.2499,-1.2498,0,0,0,0,0,0,0,0,0,0,0,0,0,-1.2738,-1.2737,-1.2666,-1.2666,-1.2665,-1.2608,-1.2608,-1.2607,-1.2558,-1.2557,-1.2556,-1.2556,-1.2501,-1.2499,-1.2498,0,0,0,0,0,0,0,0,0,0,0,0,0,-1.2696,-1.2737,-1.2667,-1.2634,-1.263,-1.2609,-1.2608,-1.2607,-1.2558,-1.2557,-1.2556,-1.2555,-1.2501,-1.25,-1.2498,-1.2506,0,0,-1.2494,-1.2493,0,0,0,0,0,0,0,0,-1.2699,-1.2694,-1.2639,-1.2636,-1.2632,-1.2589,-1.2612,-1.2573,-1.2558,-1.2585,-1.2556,-1.2555,-1.2531,-1.2527,-1.2518,-1.2503,-1.2501,-1.2493,-1.2493,-1.2492,-1.2492,0,0,0,0,0,0,0,-1.2702,-1.2696,-1.2643,-1.2638,-1.2634,-1.2623,-1.2616,-1.2605,-1.2564,-1.2583,-1.2579,-1.2573,-1.2529,-1.2519,-1.2516,-1.25,-1.2494,-1.2492,-1.2491,-1.2491,-1.2489,-1.2489,0,0,0,0,0,0,-1.2709,-1.2699,-1.2645,-1.2642,-1.2664,-1.2622,-1.2614,-1.2604,-1.2564,-1.2557,-1.2574,-1.2571,-1.2522,-1.2518,-1.2514,-1.252,-1.2492,-1.2491,-1.249,-1.2488,-1.2489,-1.249,0,0,0,0,0,0,-1.2711,-1.2705,-1.2648,-1.2669,-1.2661,-1.2622,-1.261,-1.2603,-1.2594,-1.2556,-1.2549,-1.2571,-1.2521,-1.2516,-1.2508,-1.2517,-1.249,-1.2489,-1.2487,-1.2488,-1.2489,-1.2532,0,0,0,0,0,0,-1.2713,-1.2706,-1.2708,-1.267,-1.266,-1.2641,-1.2611,-1.2603,-1.2591,-1.2587,-1.2552,-1.2546,-1.252,-1.251,-1.2506,-1.2515,-1.2488,-1.2486,-1.2487,-1.2489,-1.253,-1.2535,-1.2539,0,0,0,0,0,-1.2716,-1.2723,-1.2708,-1.2702,-1.2661,-1.2642,-1.2637,-1.2606,-1.2592,-1.2594,-1.257,-1.2547,-1.2517,-1.251,-1.2505,-1.2513,-1.2485,-1.2487,-1.2489,-1.2528,-1.2534,-1.2539,0,0,0,0,0,0,-1.2764,-1.2717,-1.27,-1.2695,-1.2673,-1.2634,-1.2635,-1.2614,-1.2596,-1.2593,-1.2557,-1.2549,-1.2545,-1.2529,-1.2521,-1.2518,-1.2498,-1.2499,-1.2529,-1.2535,-1.2539,-1.2543,-1.2486,0,0,0,0,0,-1.2774,-1.2761,-1.2721,-1.272,-1.271,-1.2675,-1.2665,-1.2643,-1.262,-1.261,-1.2586,-1.2565,-1.255,-1.2542,-1.2527,-1.2527,-1.2519,-1.2531,-1.2535,-1.2539,-1.254,-1.2539,-1.2544,-1.2496,-1.2496,-1.2496,0,0,-1.2794,-1.2767,-1.2761,-1.2729,-1.271,-1.2698,-1.2667,-1.2657,-1.2648,-1.2609,-1.2599,-1.2581,-1.2555,-1.2551,-1.2548,-1.2537,-1.2552,-1.2542,-1.2545,-1.2544,-1.2542,-1.2546,-1.2551,-1.2497,-1.2497,-1.2496,0,0,-1.2825,-1.2803,-1.28,-1.2781,-1.2751,-1.2727,-1.2727,-1.2691,-1.2677,-1.2666,-1.2637,-1.2627,-1.2603,-1.2586,-1.2574,-1.2599,-1.2577,-1.2595,-1.2619,-1.2618,-1.2622,-1.2625,-1.2634,-1.2638,-1.2596,-1.2596,-1.2596,0,-1.2855,-1.2835,-1.2801,-1.2792,-1.2779,-1.2742,-1.2739,-1.2722,-1.269,-1.2682,-1.267,-1.2639,-1.2619,-1.261,-1.2617,-1.2608,-1.2607,-1.2598,-1.2624,-1.2627,-1.263,-1.2637,-1.2641,-1.2599,-1.2598,-1.2598,-1.2598,0,-1.2872,-1.286,-1.286,-1.2828,-1.2816,-1.281,-1.2776,-1.2767,-1.2747,-1.2725,-1.2715,-1.269,-1.2669,-1.2665,-1.2646,-1.2654,-1.2648,-1.2631,-1.2609,-1.2637,-1.2644,-1.2646,-1.2602,-1.2601,-1.26,-1.26,0,0,-1.2932,-1.2881,-1.2882,-1.2866,-1.2831,-1.2821,-1.2814,-1.2792,-1.2785,-1.2765,-1.2758,-1.2739,-1.2722,-1.2709,-1.2687,-1.2687,-1.2708,-1.2669,-1.2668,-1.2677,-1.2715,-1.2728,-1.2732,-1.2694,-1.2694,-1.2694,-1.2717,0,-1.2957,-1.294,-1.2909,-1.2903,-1.289,-1.2856,-1.2849,-1.2828,-1.2807,-1.2795,-1.2773,-1.276,-1.2739,-1.273,-1.2729,-1.2706,-1.2715,-1.2704,-1.2688,-1.2687,-1.2694,-1.2736,-1.2749,-1.2772,-1.272,-1.272,-1.2721,0,-1.2983,-1.2963,-1.2955,-1.292,-1.2914,-1.2908,-1.2886,-1.2874,-1.2849,-1.2835,-1.282,-1.2796,-1.2787,-1.2768,-1.2756,-1.2749,-1.2741,-1.2729,-1.2729,-1.2726,-1.2705,-1.2734,-1.2779,-1.2782,-1.2725,-1.2724,-1.2724,0,-1.3027,-1.2998,-1.2989,-1.2977,-1.2936,-1.2934,-1.2917,-1.2891,-1.288,-1.2861,-1.2853,-1.2834,-1.2824,-1.281,-1.2782,-1.2771,-1.2773,-1.2752,-1.2761,-1.2762,-1.2763,-1.2763,-1.2807,-1.2759,-1.2759,-1.2759,-1.2759,0,-1.3058,-1.3054,-1.3008,-1.3002,-1.2997,-1.2963,-1.296,-1.294,-1.2917,-1.2908,-1.2878,-1.287,-1.2834,-1.2822,-1.2801,-1.2794,-1.279,-1.2778,-1.2772,-1.278,-1.2782,-1.2774,-1.2772,-1.276,-1.276,-1.2759,-1.2759,0,-1.3105,-1.3074,-1.3062,-1.3024,-1.3015,-1.3013,-1.2981,-1.2975,-1.2953,-1.2942,-1.2937,-1.2903,-1.2888,-1.2858,-1.2836,-1.2821,-1.2819,-1.281,-1.2827,-1.2824,-1.2834,-1.2834,-1.2875,-1.2878,-1.2828,-1.2829,-1.2829,0,-1.3127,-1.3123,-1.3084,-1.3075,-1.3059,-1.3045,-1.3033,-1.3,-1.2989,-1.296,-1.2958,-1.294,-1.2924,-1.2902,-1.2876,-1.2858,-1.2847,-1.2863,-1.2845,-1.2853,-1.2847,-1.2847,-1.2847,-1.2867,-1.2868,-1.2868,-1.2869,0,-1.3168,-1.3152,-1.3136,-1.3114,-1.31,-1.3081,-1.3061,-1.3056,-1.3018,-1.3008,-1.2991,-1.2979,-1.2955,-1.2938,-1.2916,-1.29,-1.2879,-1.2875,-1.2876,-1.2884,-1.2894,-1.2888,-1.2838,-1.2874,-1.2873,-1.2873,-1.2873,-1.2872,-1.3203,-1.3197,-1.3169,-1.3152,-1.3133,-1.3115,-1.3107,-1.3083,-1.3068,-1.3045,-1.3027,-1.3012,-1.2988,-1.2956,-1.2942,-1.293,-1.292,-1.2922,-1.2922,-1.2923,-1.2926,-1.2896,-1.2927,-1.2926,-1.2926,-1.2926,-1.2926,0,-1.3242,-1.3222,-1.3206,-1.3178,-1.3165,-1.3144,-1.3121,-1.3111,-1.3098,-1.3076,-1.3061,-1.3042,-1.3025,-1.2998,-1.2979,-1.2975,-1.2965,-1.2972,-1.2971,-1.2968,-1.2937,-1.2937,-1.298,-1.298,-1.298,-1.298,-1.298,-1.298,-1.3261,-1.3251,-1.3232,-1.3213,-1.3193,-1.3177,-1.3165,-1.3149,-1.3131,-1.3111,-1.3097,-1.3078,-1.3055,-1.3034,-1.3018,-1.301,-1.3005,-1.3015,-1.3004,-1.2975,-1.297,-1.2965,-1.2966,-1.3014,-1.3014,-1.3036,-1.3036,-1.3037]},{"header":{"parameterUnit":"m.s-1","parameterCategory":1,"la1":30.2991,"la2":30.254,"lo1":-89.0895,"lo2":-89.0444,"dy":0.0017,"dx":0.0017,"nx":28,"ny":28,"refTime":"2024-04-01T03:00:00:Z","depth":0,"parameterNumber":3,"parameterNumberName":"V-component_of_WINDS"},"data":[0,0,0,0,0,0,0,0,0,0,0,0,0,0,0,0,0,0,0,0,0,0,0,0,0,0,0,0,0,0,0,0,0,0,0,0,0,0,0,0,0,0,0,0,0,0,0,0,0,0,0,0,0,0,0,0,0,0,4.757,4.757,0,4.7554,4.7554,4.7554,4.7509,4.7508,4.7507,4.7506,4.7491,4.7492,4.7492,0,0,0,0,0,0,0,0,0,0,0,0,0,4.7563,4.7563,4.757,4.757,4.757,4.7554,4.7554,4.7554,4.7509,4.7508,4.7507,4.7506,4.7491,4.7492,4.7492,0,0,0,0,0,0,0,0,0,0,0,0,0,4.7558,4.7563,4.757,4.7545,4.7543,4.7554,4.7554,4.7554,4.7509,4.7508,4.7507,4.7505,4.7491,4.7492,4.7493,4.7527,0,0,4.7495,4.7495,0,0,0,0,0,0,0,0,4.7559,4.7559,4.7549,4.7547,4.7545,4.7532,4.7546,4.7545,4.751,4.7522,4.7506,4.7504,4.7506,4.7506,4.7506,4.7526,4.7525,4.7495,4.7495,4.7496,4.7496,0,0,0,0,0,0,0,4.7559,4.7559,4.7564,4.7549,4.7546,4.7536,4.7533,4.7545,4.7523,4.7521,4.7518,4.7516,4.7505,4.7505,4.7505,4.7525,4.7495,4.7496,4.7496,4.7496,4.7573,4.7574,0,0,0,0,0,0,4.7563,4.756,4.7564,4.7563,4.7548,4.7537,4.7534,4.7538,4.7522,4.7519,4.7518,4.7514,4.7505,4.7504,4.7505,4.7544,4.7496,4.7496,4.7497,4.7571,4.7573,4.7575,0,0,0,0,0,0,4.7563,4.7564,4.7565,4.7561,4.756,4.7539,4.7542,4.7538,4.7539,4.752,4.7516,4.7523,4.7504,4.7503,4.7521,4.7543,4.7497,4.7498,4.7569,4.7572,4.7574,4.7623,0,0,0,0,0,0,4.7563,4.7564,4.7576,4.7561,4.756,4.7582,4.7544,4.7539,4.754,4.7535,4.7523,4.752,4.7502,4.7521,4.7522,4.7543,4.7498,4.7567,4.757,4.7573,4.762,4.7627,4.7633,0,0,0,0,0,4.7563,4.7591,4.7577,4.7578,4.7575,4.7583,4.7583,4.7562,4.7542,4.7554,4.7542,4.752,4.754,4.7523,4.7524,4.7546,4.7566,4.757,4.7573,4.7617,4.7625,4.7633,0,0,0,0,0,0,4.761,4.7589,4.7573,4.7597,4.7592,4.7576,4.7591,4.7572,4.7573,4.7569,4.7543,4.754,4.7562,4.7555,4.7537,4.7578,4.7549,4.7553,4.7582,4.759,4.7597,4.7599,4.7499,0,0,0,0,0,4.7623,4.7631,4.7612,4.7635,4.7633,4.7613,4.7615,4.7599,4.7593,4.7591,4.758,4.7576,4.7581,4.7585,4.7589,4.7618,4.7615,4.7633,4.764,4.7646,4.765,4.7666,4.7674,4.7586,4.7586,4.7586,0,0,4.7651,4.764,4.7646,4.7644,4.7638,4.7648,4.7611,4.7622,4.7629,4.7593,4.7609,4.7601,4.7595,4.7619,4.7629,4.7614,4.7674,4.765,4.7655,4.7656,4.767,4.7679,4.7686,4.7589,4.7588,4.7588,0,0,4.7705,4.7698,4.7716,4.7711,4.7703,4.7689,4.7693,4.768,4.7673,4.7689,4.7662,4.767,4.7679,4.7675,4.7675,4.7728,4.7708,4.773,4.7766,4.7782,4.7789,4.7795,4.7815,4.7822,4.7734,4.7734,4.7734,0,4.7741,4.7753,4.7729,4.7742,4.7742,4.7709,4.7728,4.7724,4.7718,4.7719,4.7702,4.7713,4.7706,4.7729,4.7742,4.7743,4.7748,4.7732,4.779,4.7795,4.7801,4.782,4.7827,4.7737,4.7736,4.7736,4.7736,0,4.7798,4.7806,4.7823,4.7817,4.7819,4.7835,4.7813,4.7818,4.7802,4.779,4.7807,4.7797,4.7799,4.7802,4.7787,4.7824,4.7815,4.7794,4.7765,4.7812,4.783,4.7837,4.7741,4.774,4.7739,4.7738,0,0,4.7883,4.7863,4.787,4.7867,4.7855,4.7862,4.7876,4.7877,4.7882,4.7878,4.7891,4.7899,4.788,4.7879,4.7863,4.7876,4.792,4.7854,4.7853,4.7868,4.7962,4.7978,4.7987,4.7906,4.7908,4.7909,4.7963,0,4.7936,4.796,4.7938,4.7966,4.7974,4.7943,4.7956,4.795,4.7939,4.7945,4.7932,4.7939,4.7913,4.7913,4.7924,4.7913,4.7939,4.7908,4.7919,4.7919,4.7923,4.7996,4.8014,4.8065,4.7969,4.797,4.7971,0,4.8001,4.8,4.8029,4.8016,4.8018,4.803,4.8029,4.8035,4.8028,4.8019,4.8018,4.7998,4.8012,4.7982,4.8002,4.7981,4.7984,4.7979,4.798,4.7982,4.7949,4.8001,4.8081,4.8089,4.7981,4.798,4.798,0,4.8063,4.8068,4.8086,4.8085,4.8069,4.8078,4.8072,4.8063,4.8066,4.8065,4.8066,4.8067,4.8068,4.807,4.805,4.803,4.8073,4.8041,4.8067,4.8067,4.8078,4.8078,4.8161,4.8078,4.8078,4.8078,4.8077,0,4.8125,4.8144,4.8114,4.8125,4.8146,4.8121,4.8142,4.8133,4.8125,4.8135,4.8107,4.8117,4.809,4.8097,4.8082,4.8101,4.8101,4.8095,4.8091,4.8098,4.8099,4.8101,4.8098,4.808,4.8079,4.8079,4.8078,0,4.8197,4.8178,4.8196,4.8179,4.8175,4.8191,4.8177,4.8187,4.8174,4.8186,4.8188,4.8167,4.8174,4.8154,4.8158,4.8148,4.8176,4.8165,4.8178,4.8176,4.8203,4.8201,4.8291,4.8302,4.8211,4.8211,4.8212,0,4.8239,4.8253,4.8238,4.8242,4.8237,4.8244,4.8246,4.8221,4.8224,4.8217,4.8229,4.8233,4.8235,4.8247,4.8233,4.8236,4.8226,4.8258,4.8227,4.8234,4.8229,4.8229,4.823,4.8265,4.8266,4.8267,4.8268,0,4.8316,4.8306,4.8309,4.8309,4.8312,4.8311,4.8308,4.8313,4.8286,4.8291,4.8298,4.8299,4.8303,4.8308,4.8308,4.8302,4.8281,4.8277,4.8283,4.8292,4.8299,4.8297,4.8198,4.8276,4.8275,4.8274,4.8274,4.8273,4.8376,4.8387,4.8378,4.8382,4.8377,4.8375,4.8384,4.8372,4.8376,4.8377,4.8362,4.8372,4.8364,4.8362,4.8358,4.8366,4.8351,4.836,4.8363,4.8366,4.8371,4.8297,4.8365,4.8365,4.8365,4.8364,4.8364,0,4.8452,4.8445,4.8449,4.8446,4.845,4.8428,4.8424,4.8429,4.8437,4.8432,4.8434,4.8442,4.8447,4.8432,4.8435,4.8444,4.8435,4.8446,4.8446,4.8445,4.8383,4.8378,4.8453,4.8453,4.8453,4.8453,4.8453,4.8453,4.8493,4.8511,4.8499,4.8515,4.8507,4.8516,4.8515,4.8513,4.8509,4.8518,4.8522,4.8512,4.8504,4.8505,4.8509,4.8505,4.8508,4.8523,4.8515,4.8458,4.8449,4.8441,4.8436,4.8523,4.8523,4.8577,4.8578,4.8578]}]]